Location: Unspecified
(0.0000°N, 0.0000°E)
Time: 13:26:38
(UTC+00:00)

STARLINK-32046 - Visible Passes

Search period start: 19 September 2024 00:00
Search period end: 29 September 2024 00:00
Orbit: 446 x 448 km, 53.2° (Epoch: 19 September)

Date Brightness Start Highest point End Pass type
(mag) Time Alt. Az. Time Alt. Az. Time Alt. Az.
19 Sep 5.9 19:32:55 10° SSW 19:33:19 13° SSW 19:33:19 13° SSW visible
20 Sep 4.2 18:54:49 10° S 18:57:43 28° SE 18:57:43 28° SE visible
21 Sep 4.8 18:17:06 10° SSE 18:19:32 17° SE 18:21:59 10° E visible
21 Sep 6.2 19:54:25 10° W 19:55:56 15° WNW 19:55:56 15° WNW visible
22 Sep 5.3 19:15:19 10° WSW 19:18:18 26° NW 19:20:40 13° N visible
23 Sep 4.3 18:36:39 10° SW 18:40:02 44° WNW 18:43:25 10° NNE visible
26 Sep 4.5 05:01:13 10° NNW 05:04:32 40° ENE 05:07:52 10° SE visible
27 Sep 5.4 04:23:54 12° N 04:26:26 24° NE 04:29:21 10° ESE visible
28 Sep 6.2 03:48:49 15° ENE 03:48:49 15° ENE 03:50:28 10° E visible
28 Sep 4.8 05:22:57 10° WNW 05:25:29 19° SW 05:28:02 10° S visible
